Vertical_Velocity
-12 -15 5 9 1 -1 1 1 2 1 3 3 3 -1 4 1 1 -1 -2 -1 0 -0
32 -15 8 -0 -2 7 10 5 -1 3 4 1 4 2 -2 3 3 3 0 -0 -1 -3
15 -11 4 7 4 3 2 5 3 3 1 4 4 -0 1 0 -1 -3 -3 -2 -0 -1
-34 31 45 -12 8 -4 4 5 1 0 1 3 2 -2 4 -1 3 1 1 2 -1 1
0 1 0 35 37 2 12 5 2 3 3 3 1 -1 -1 -5 5 0 1 2 2 1
-4 7 5 7 13 26 0 -11 10 8 3 4 2 1 4 1 1 3 0 -1 -6 3
4 2 10 9 -6 -5 -6 8 13 13 13 0 7 6 9 2 0 -3 -6 -5 5 -4
4 -1 -0 -13 -1 -11 -2 -1 4 -8 4 9 2 -9 -0 3 11 0 1 -0 -2 -4
-2 -0 5 -1 -9 -1 4 5 2 7 10 19 7 -1 5 5 19 4 3 1 0 -2
-0 2 3 3 1 -0 7 -2 1 1 -7 -4 -2 6 7 3 5 2 -2 2 -7 -2
-1 1 0 1 -1 -3 -3 9 9 3 -3 -1 8 9 2 7 0 8 2 2 0 3
1 -1 -0 -0 4 1 1 4 1 -2 4 4 3 -4 -1 0 -0 5 4 -2 -3 4
-3 -3 1 6 7 12 21 17 8 9 7 6 1 3 4 2 2 -2 -5 -6 2 1
-7 -6 -3 -10 -13 -5 -5 -8 -6 -1 -8 1 -8 5 2 1 5 5 9 3 9 3
Height
3036 3048 3058 3068 3075 3081 3088 3095 3101 3108 3114 3120 3124 3129 3134 3138 3143 3146 3149 3152 3155 3158
3035 3043 3054 3063 3071 3077 3084 3089 3097 3103 3109 3114 3119 3124 3129 3134 3137 3141 3144 3147 3150 3153
3032 3038 3049 3058 3065 3072 3078 3085 3091 3096 3102 3107 3113 3118 3123 3128 3132 3136 3140 3142 3145 3146
3031 3030 3041 3051 3058 3068 3075 3080 3085 3091 3097 3102 3107 3112 3118 3121 3126 3130 3133 3135 3138 3139
3031 3036 3042 3046 3051 3061 3070 3075 3081 3086 3090 3096 3101 3107 3111 3115 3120 3123 3126 3128 3130 3132
3033 3036 3039 3044 3046 3054 3063 3070 3071 3079 3083 3089 3095 3100 3105 3109 3110 3115 3119 3121 3122 3121
3036 3036 3038 3039 3047 3054 3060 3058 3067 3071 3076 3083 3088 3093 3098 3100 3105 3108 3110 3113 3111 3111
3035 3037 3039 3040 3048 3055 3059 3063 3065 3069 3074 3077 3082 3086 3091 3095 3097 3100 3104 3108 3108 3108
3038 3040 3043 3046 3053 3058 3060 3064 3066 3070 3072 3075 3080 3083 3085 3087 3090 3093 3097 3100 3102 3104
3042 3046 3047 3051 3054 3056 3059 3063 3065 3067 3071 3074 3077 3080 3083 3085 3088 3090 3093 3095 3097 3098
3043 3045 3049 3053 3055 3057 3060 3062 3064 3066 3068 3071 3074 3077 3078 3081 3083 3085 3087 3087 3088 3090
3044 3046 3049 3052 3054 3056 3059 3060 3062 3064 3066 3069 3071 3072 3071 3075 3076 3079 3079 3082 3083 3084
3048 3050 3051 3052 3054 3054 3053 3054 3057 3059 3060 3062 3063 3064 3066 3069 3071 3074 3075 3076 3077 3077
3047 3050 3050 3050 3050 3051 3051 3051 3052 3052 3055 3055 3057 3056 3058 3060 3062 3065 3065 3066 3068 3068